Delta, CO

10:02 PM MDT on September 20, 2017 (GMT -0600)
Delta

Weather History for KAJZ - August, 2013

Change the Weather History Date:

Tuesday, August 20, 2013

  Actual Average (KMTJ) Record (KMTJ)
Temperature  
Mean Temperature 78 °F -  
Max Temperature 96 °F 83 °F 91 °F (1997)
Min Temperature 61 °F 54 °F 49 °F (2015)
Cooling Degree Days 14    
Growing Degree Days 28 (Base 50)    
Moisture  
Dew Point 47 °F    
Average Humidity 37    
Maximum Humidity 60    
Minimum Humidity 14    
Precipitation  
Precipitation 0.00 in - - ()
Sea Level Pressure  
Sea Level Pressure 30.15 in    
Wind  
Wind Speed 6 mph (ENE)    
Max Wind Speed 28 mph    
Max Gust Speed 36 mph    
Visibility 8 miles    
Events Thunderstorm    
Averages and records for this station are not official NWS values.
T = Trace of Precipitation, MM = Missing Value Source: NWS Daily Summary

Daily Weather History Graph

Daily Weather History Graph

Search for Another Location

Airport or City:

Trip Planner

Search our weather history database for the weather conditions in past years. The results will help you decide how hot, cold, wet, or windy it might be!

Date:

Astronomy

Aug. 20, 2013 Rise Set
Actual Time 6:30 AM MDT 7:59 PM MDT
Civil Twilight 6:02 AM MDT 8:27 PM MDT
Nautical Twilight 5:29 AM MDT 9:01 PM MDT
Astronomical Twilight 4:53 AM MDT 9:36 PM MDT
Moon 7:33 PM MDT (8/20) 6:04 AM MDT (8/20)
Length of Visible Light 14h 24m
Length of Day
13h 28m
Full, 100% of the Moon is Illuminated
Aug 20
Full
Aug 20
Full
Aug 28
Last Quarter
Sep 5
New
Sep 12
First Quarter

Hourly Weather History & Observations

Time (MDT) Temp. Dew Point Humidity Pressure Visibility Wind Dir Wind Speed Gust Speed Precip Events Conditions
12:15 AM 70.3 °F 46.0 °F 42% 30.15 in 10.0 mi NE 4.6 mph - N/A   Clear
12:35 AM 70.5 °F 48.0 °F 45% 30.15 in 10.0 mi NNW 6.9 mph - N/A   Clear
12:55 AM 72.0 °F 44.8 °F 38% 30.16 in 10.0 mi SSW 3.5 mph - N/A   Clear
1:15 AM 70.5 °F 47.3 °F 44% 30.16 in 10.0 mi West 3.5 mph - N/A   Clear
1:35 AM 70.9 °F 47.7 °F 44% 30.15 in 7.0 mi Calm Calm - N/A   Clear
1:55 AM 70.5 °F 47.8 °F 44% 30.15 in 7.0 mi Calm Calm - N/A   Clear
2:15 AM 69.8 °F 48.0 °F 46% 30.15 in 10.0 mi Calm Calm - N/A   Clear
2:35 AM 70.2 °F 47.3 °F 44% 30.15 in 10.0 mi Calm Calm - N/A   Clear
2:55 AM 68.2 °F 48.6 °F 49% 30.16 in 10.0 mi NNE 4.6 mph - N/A   Clear
3:15 AM 68.0 °F 50.0 °F 52% 30.16 in 10.0 mi NNE 5.8 mph - N/A   Clear
3:35 AM 68.7 °F 48.0 °F 48% 30.16 in 10.0 mi NNE 9.2 mph - N/A   Clear
3:55 AM 68.2 °F 47.7 °F 48% 30.16 in 10.0 mi NNE 5.8 mph - N/A   Clear
4:15 AM 69.6 °F 46.0 °F 43% 30.16 in 10.0 mi NNE 3.5 mph - N/A   Clear
4:35 AM 67.5 °F 47.5 °F 49% 30.16 in 10.0 mi Calm Calm - N/A   Clear
4:55 AM 64.9 °F 45.5 °F 49% 30.16 in 10.0 mi ENE 6.9 mph - N/A   Clear
5:15 AM 66.2 °F 45.5 °F 47% 30.16 in 10.0 mi ENE 8.1 mph - N/A   Clear
5:35 AM 66.6 °F 45.5 °F 47% 30.16 in 10.0 mi NE 8.1 mph - N/A   Clear
5:55 AM 65.7 °F 45.5 °F 48% 30.17 in 7.0 mi ESE 4.6 mph - N/A   Clear
6:15 AM 63.1 °F 47.1 °F 56% 30.18 in 10.0 mi SE 4.6 mph - N/A   Clear
6:35 AM 61.7 °F 47.7 °F 60% 30.17 in 5.0 mi Calm Calm - N/A   Clear
6:55 AM 62.8 °F 47.1 °F 57% 30.18 in 7.0 mi NNE 4.6 mph - N/A   Clear
7:15 AM 65.7 °F 46.0 °F 49% 30.19 in 7.0 mi ENE 5.8 mph - N/A   Clear
7:35 AM 67.1 °F 46.4 °F 47% 30.19 in 7.0 mi East 6.9 mph - N/A   Clear
7:55 AM 68.4 °F 46.2 °F 45% 30.19 in 7.0 mi NE 6.9 mph - N/A   Clear
8:15 AM 69.6 °F 46.0 °F 43% 30.19 in 7.0 mi ENE 9.2 mph - N/A   Clear
8:35 AM 72.1 °F 45.3 °F 38% 30.19 in 7.0 mi ENE 8.1 mph - N/A   Clear
8:55 AM 74.3 °F 45.3 °F 36% 30.19 in 7.0 mi ENE 6.9 mph - N/A   Clear
9:15 AM 75.2 °F 45.0 °F 34% 30.19 in 7.0 mi Calm Calm - N/A   Clear
9:35 AM 76.8 °F 45.1 °F 32% 30.19 in 7.0 mi East 3.5 mph - N/A   Clear
9:55 AM 79.2 °F 45.0 °F 30% 30.19 in 7.0 mi Calm Calm - N/A   Clear
10:15 AM 80.4 °F 44.8 °F 28% 30.18 in 7.0 mi Calm Calm - N/A   Clear
10:35 AM 82.2 °F 44.8 °F 27% 30.18 in 10.0 mi Calm Calm - N/A   Clear
10:55 AM 83.7 °F 44.1 °F 25% 30.17 in 10.0 mi Calm Calm - N/A   Clear
11:15 AM 86.0 °F 45.5 °F 24% 30.16 in 7.0 mi SE 4.6 mph - N/A   Clear
11:35 AM 86.9 °F 44.6 °F 23% 30.16 in 7.0 mi Calm Calm - N/A   Clear
11:55 AM 87.1 °F 44.2 °F 22% 30.15 in 7.0 mi Calm Calm - N/A   Clear
12:15 PM 89.2 °F 44.1 °F 21% 30.14 in 7.0 mi SSW 4.6 mph - N/A   Clear
12:35 PM 89.8 °F 44.2 °F 21% 30.13 in 10.0 mi SSW 4.6 mph - N/A Thunderstorm Clear
12:55 PM 90.1 °F 43.2 °F 19% 30.12 in 7.0 mi SSE 4.6 mph - N/A   Clear
1:15 PM 90.3 °F 42.6 °F 19% 30.11 in 10.0 mi SSW 5.8 mph - N/A   Clear
1:35 PM 91.2 °F 44.1 °F 19% 30.10 in 7.0 mi SSW 4.6 mph - N/A   Clear
1:55 PM 92.8 °F 45.0 °F 19% 30.09 in 7.0 mi South 4.6 mph - N/A   Clear
2:15 PM 92.7 °F 43.9 °F 18% 30.08 in 10.0 mi West 11.5 mph 17.3 mph N/A Thunderstorm Clear
2:35 PM 95.5 °F 42.1 °F 16% 30.07 in 10.0 mi West 17.3 mph 23.0 mph N/A   Clear
2:55 PM 95.4 °F 42.1 °F 16% 30.07 in 7.0 mi West 16.1 mph 25.3 mph N/A Thunderstorm Clear
3:15 PM 95.2 °F 41.5 °F 16% 30.06 in 10.0 mi West 15.0 mph 18.4 mph N/A Thunderstorm Clear
3:35 PM 95.9 °F 40.5 °F 15% 30.05 in 10.0 mi SW 15.0 mph 19.6 mph N/A Thunderstorm Clear
3:55 PM 96.1 °F 40.1 °F 14% 30.05 in 7.0 mi West 15.0 mph 20.7 mph N/A   Clear
4:15 PM 96.1 °F 41.4 °F 15% 30.05 in 10.0 mi West 13.8 mph 23.0 mph N/A   Clear
4:35 PM 93.2 °F 40.8 °F 16% 30.05 in 7.0 mi West 15.0 mph - N/A   Clear
4:55 PM 89.4 °F 47.5 °F 23% 30.09 in 7.0 mi South 27.6 mph 35.7 mph N/A Thunderstorm Thunderstorm
5:15 PM 79.9 °F 49.6 °F 35% 30.11 in 7.0 mi SSW 18.4 mph 35.7 mph N/A Thunderstorm Scattered Clouds
5:35 PM 77.9 °F 52.0 °F 40% 30.13 in 7.0 mi SSW 12.7 mph 24.2 mph N/A Thunderstorm Scattered Clouds
5:55 PM 77.2 °F 52.3 °F 42% 30.15 in 7.0 mi SW 12.7 mph 24.2 mph N/A Thunderstorm Scattered Clouds
6:15 PM 77.0 °F 52.7 °F 43% 30.14 in 7.0 mi WNW 4.6 mph 16.1 mph N/A Thunderstorm Thunderstorm
6:35 PM 77.4 °F 50.9 °F 39% 30.15 in 7.0 mi NNE 5.8 mph - N/A   Scattered Clouds
6:55 PM 78.4 °F 50.2 °F 37% 30.16 in 10.0 mi NE 10.4 mph - N/A   Mostly Cloudy
7:15 PM 77.0 °F 52.7 °F 43% 30.16 in 5.0 mi NE 8.1 mph - N/A   Mostly Cloudy
7:35 PM 77.9 °F 51.6 °F 40% 30.15 in 5.0 mi NE 10.4 mph - N/A   Clear
7:55 PM 78.1 °F 50.2 °F 38% 30.15 in 10.0 mi NE 11.5 mph - N/A   Clear
8:15 PM 77.0 °F 52.0 °F 42% 30.15 in 7.0 mi NE 13.8 mph 19.6 mph N/A   Clear
8:35 PM 76.5 °F 51.8 °F 42% 30.15 in 7.0 mi NE 10.4 mph - N/A   Clear
8:55 PM 76.6 °F 50.7 °F 40% 30.15 in 10.0 mi ENE 8.1 mph - N/A   Clear
9:15 PM 75.9 °F 51.6 °F 43% 30.16 in 7.0 mi ENE 9.2 mph - N/A   Clear
9:35 PM 74.7 °F 52.0 °F 45% 30.16 in 7.0 mi ENE 4.6 mph - N/A   Clear
9:55 PM 73.4 °F 52.0 °F 47% 30.16 in 10.0 mi ENE 5.8 mph - N/A   Clear
10:15 PM 73.0 °F 51.4 °F 47% 30.16 in 10.0 mi ESE 4.6 mph - N/A   Clear
10:35 PM 70.9 °F 51.4 °F 50% 30.16 in 10.0 mi Calm Calm - N/A   Clear
10:55 PM 70.5 °F 51.8 °F 51% 30.16 in 7.0 mi Calm Calm - N/A   Clear
11:15 PM 70.5 °F 52.0 °F 52% 30.17 in 7.0 mi Calm Calm - N/A   Clear
11:35 PM 68.7 °F 51.8 °F 55% 30.17 in 10.0 mi Calm Calm - N/A   Clear
11:55 PM 69.8 °F 52.5 °F 54% 30.17 in 10.0 mi SSW 3.5 mph - N/A   Clear